Weather History for Cody, WY

Change the Weather History Date:

Sunday, February 24, 2013

  Actual Average Record
Temperature  
Mean Temperature 28 °F -  
Max Temperature 35 °F 44 °F 63 °F (1921)
Min Temperature 21 °F 21 °F -16 °F (1922)
Degree Days  
Heating Degree Days 37    
Moisture  
Dew Point 13 °F    
Average Humidity 57    
Maximum Humidity 86    
Minimum Humidity 35    
Precipitation  
Precipitation 0.00 in - - ()
Sea Level Pressure  
Sea Level Pressure 30.00 in    
Wind  
Wind Speed 6 mph (West)    
Max Wind Speed 15 mph    
Max Gust Speed 22 mph    
Visibility 10 miles    
Events      
Averages and records for this station are not official NWS values.
T = Trace of Precipitation, MM = Missing Value Source: NWS Daily Summary

Daily Weather History Graph

Daily Weather History Graph

Search for Another Location

Airport:

Trip Planner

Search our weather history database for the weather conditions in past years. The results will help you decide how hot, cold, wet, or windy it might be!

Date:

Astronomy

Feb. 24, 2013 Rise Set
Actual Time 7:01 AM MST 5:57 PM MST
Civil Twilight 6:32 AM MST 6:27 PM MST
Nautical Twilight 5:58 AM MST 7:00 PM MST
Astronomical Twilight 5:24 AM MST 7:34 PM MST
Moon 5:12 PM MST (2/24) 6:01 AM MST (2/24)
Length of Visible Light 11h 55m
Length of Day
10h 56m
Waxing Gibbous, 99% of the Moon is Illuminated
Feb 24
Waxing Gibbous
Feb 25
Full
Mar 4
Last Quarter
Mar 11
New
Mar 19
First Quarter

Hourly Weather History & Observations

Time (MST) Temp. Windchill Dew Point Humidity Pressure Visibility Wind Dir Wind Speed Gust Speed Precip Events Conditions
12:15 AM 24.8 °F - 17.6 °F 74% 29.89 in 10.0 mi Calm Calm - N/A   Mostly Cloudy
12:35 AM 24.8 °F 20.5 °F 15.8 °F 69% 29.90 in 10.0 mi NW 3.5 mph - N/A   Mostly Cloudy
12:55 AM 24.8 °F 19.1 °F 14.0 °F 64% 29.91 in 10.0 mi North 4.6 mph - N/A   Partly Cloudy
1:15 AM 24.8 °F 15.3 °F 14.0 °F 64% 29.92 in 10.0 mi North 9.2 mph - N/A   Mostly Cloudy
1:55 AM 24.8 °F 14.6 °F 17.6 °F 74% 29.93 in 10.0 mi North 10.4 mph - N/A   Overcast
2:15 AM 24.8 °F 15.3 °F 19.4 °F 80% 29.94 in 10.0 mi North 9.2 mph - N/A   Overcast
2:35 AM 24.8 °F 15.3 °F 19.4 °F 80% 29.95 in 10.0 mi NNW 9.2 mph 16.1 mph N/A   Overcast
2:55 AM 24.8 °F 16.1 °F 17.6 °F 74% 29.95 in 10.0 mi East 8.1 mph - N/A   Overcast
3:15 AM 24.8 °F 16.9 °F 19.4 °F 80% 29.96 in 10.0 mi ENE 6.9 mph - N/A   Overcast
3:35 AM 24.8 °F 16.1 °F 17.6 °F 74% 29.96 in 10.0 mi NE 8.1 mph - N/A   Overcast
3:55 AM 23.0 °F - 19.4 °F 86% 29.97 in 10.0 mi Calm Calm - N/A   Overcast
4:15 AM 24.8 °F 20.5 °F 19.4 °F 80% 29.97 in 10.0 mi West 3.5 mph - N/A   Overcast
4:35 AM 23.0 °F 18.4 °F 17.6 °F 80% 29.98 in 10.0 mi NNW 3.5 mph - N/A   Overcast
5:35 AM 24.8 °F 14.0 °F 15.8 °F 69% 30.01 in 10.0 mi NNW 11.5 mph 19.6 mph N/A   Scattered Clouds
5:55 AM 24.8 °F 16.1 °F 15.8 °F 69% 30.02 in 10.0 mi NNE 8.1 mph - N/A   Mostly Cloudy
6:15 AM 23.0 °F 15.8 °F 15.8 °F 74% 30.03 in 10.0 mi NNE 5.8 mph - N/A   Scattered Clouds
6:35 AM 23.0 °F 15.8 °F 15.8 °F 74% 30.04 in 10.0 mi North 5.8 mph - N/A   Mostly Cloudy
6:55 AM 24.8 °F - 15.8 °F 69% 30.04 in 10.0 mi Calm Calm - N/A   Overcast
7:15 AM 23.0 °F - 15.8 °F 74% 30.05 in 10.0 mi Calm Calm - N/A   Overcast
7:35 AM 21.2 °F 13.6 °F 14.0 °F 74% 30.06 in 10.0 mi WSW 5.8 mph - N/A   Overcast
7:55 AM 21.2 °F 14.9 °F 12.2 °F 68% 30.07 in 10.0 mi WSW 4.6 mph - N/A   Overcast
8:35 AM 23.0 °F 17.0 °F 12.2 °F 63% 30.07 in 10.0 mi WSW 4.6 mph - N/A   Clear
8:55 AM 24.8 °F 17.9 °F 14.0 °F 64% 30.07 in 10.0 mi West 5.8 mph - N/A   Clear
9:15 AM 26.6 °F 21.2 °F 12.2 °F 55% 30.07 in 10.0 mi WSW 4.6 mph - N/A   Clear
9:55 AM 28.4 °F 22.2 °F 15.8 °F 59% 30.07 in 10.0 mi West 5.8 mph - N/A   Clear
10:15 AM 30.2 °F 24.3 °F 15.8 °F 55% 30.07 in 10.0 mi NE 5.8 mph - N/A   Partly Cloudy
10:35 AM 30.2 °F 21.9 °F 15.8 °F 55% 30.07 in 10.0 mi North 9.2 mph - N/A   Mostly Cloudy
10:55 AM 30.2 °F 24.3 °F 15.8 °F 55% 30.07 in 10.0 mi NNE 5.8 mph - N/A   Mostly Cloudy
11:15 AM 30.2 °F 23.4 °F 14.0 °F 51% 30.07 in 10.0 mi NNE 6.9 mph - N/A   Scattered Clouds
11:55 AM 32.0 °F 26.4 °F 15.8 °F 51% 30.07 in 10.0 mi WNW 5.8 mph - N/A   Mostly Cloudy
12:15 PM 32.0 °F 26.4 °F 14.0 °F 48% 30.06 in 10.0 mi SSW 5.8 mph - N/A   Mostly Cloudy
12:35 PM 33.8 °F 28.6 °F 14.0 °F 44% 30.05 in 10.0 mi SSW 5.8 mph - N/A   Mostly Cloudy
12:55 PM 33.8 °F - 12.2 °F 41% 30.04 in 10.0 mi Calm Calm - N/A   Scattered Clouds
1:15 PM 33.8 °F - 12.2 °F 41% 30.03 in 10.0 mi Calm Calm - N/A   Clear
1:35 PM 33.8 °F 29.6 °F 12.2 °F 41% 30.03 in 10.0 mi South 4.6 mph - N/A   Clear
1:55 PM 33.8 °F 30.8 °F 10.4 °F 38% 30.02 in 10.0 mi NE 3.5 mph - N/A   Clear
2:15 PM 33.8 °F 28.6 °F 12.2 °F 41% 30.01 in 10.0 mi SE 5.8 mph - N/A   Clear
2:35 PM 33.8 °F 29.6 °F 10.4 °F 38% 30.00 in 10.0 mi West 4.6 mph - N/A   Clear
2:55 PM 35.6 °F 29.9 °F 10.4 °F 35% 30.00 in 10.0 mi SSW 6.9 mph - N/A   Clear
3:15 PM 35.6 °F 32.8 °F 10.4 °F 35% 29.99 in 10.0 mi South 3.5 mph - N/A   Clear
3:35 PM 35.6 °F 28.6 °F 10.4 °F 35% 29.99 in 10.0 mi SSW 9.2 mph - N/A   Clear
3:55 PM 35.6 °F 30.7 °F 10.4 °F 35% 29.98 in 10.0 mi South 5.8 mph - N/A   Clear
4:35 PM 35.6 °F 27.1 °F 10.4 °F 35% 29.99 in 10.0 mi SSE 12.7 mph - N/A   Clear
4:55 PM 35.6 °F 26.2 °F 10.4 °F 35% 29.98 in 10.0 mi SSE 15.0 mph - N/A   Clear
5:15 PM 33.8 °F 24.3 °F 10.4 °F 38% 29.99 in 10.0 mi SSE 13.8 mph - N/A   Clear
5:35 PM 32.0 °F 23.0 °F 8.6 °F 38% 29.99 in 10.0 mi SSE 11.5 mph - N/A   Clear
5:55 PM 30.2 °F 20.8 °F 8.6 °F 40% 29.99 in 10.0 mi SSE 11.5 mph - N/A   Clear
6:15 PM 28.4 °F 19.1 °F 10.4 °F 47% 29.98 in 10.0 mi SE 10.4 mph - N/A   Clear
6:35 PM 26.6 °F 15.2 °F 12.2 °F 55% 29.98 in 10.0 mi SE 13.8 mph - N/A   Clear
6:55 PM 26.6 °F 17.5 °F 14.0 °F 59% 29.99 in 10.0 mi ESE 9.2 mph - N/A   Clear
7:15 PM 24.8 °F 15.3 °F 14.0 °F 64% 29.99 in 10.0 mi SE 9.2 mph - N/A   Clear
7:35 PM 24.8 °F 14.6 °F 12.2 °F 59% 29.98 in 10.0 mi SSE 10.4 mph - N/A   Clear
7:55 PM 24.8 °F 16.1 °F 12.2 °F 59% 29.99 in 10.0 mi South 8.1 mph - N/A   Clear
8:15 PM 24.8 °F 16.1 °F 10.4 °F 54% 29.99 in 10.0 mi South 8.1 mph - N/A   Clear
8:55 PM 21.2 °F - 12.2 °F 68% 29.98 in 10.0 mi Calm Calm - N/A   Clear
9:15 PM 23.0 °F 17.0 °F 14.0 °F 68% 29.98 in 10.0 mi NW 4.6 mph - N/A   Clear
9:35 PM 28.4 °F 18.0 °F 14.0 °F 55% 29.97 in 10.0 mi West 12.7 mph 19.6 mph N/A   Clear
9:55 PM 24.8 °F 17.9 °F 8.6 °F 50% 29.97 in 10.0 mi West 5.8 mph 17.3 mph N/A   Clear
10:15 PM 28.4 °F 17.5 °F 8.6 °F 43% 29.96 in 10.0 mi West 13.8 mph 18.4 mph N/A   Clear
10:35 PM 30.2 °F 20.2 °F 6.8 °F 37% 29.96 in 10.0 mi West 12.7 mph 21.9 mph N/A   Clear
10:55 PM 28.4 °F 22.2 °F 6.8 °F 40% 29.96 in 10.0 mi WNW 5.8 mph - N/A   Clear
11:15 PM 23.0 °F - 8.6 °F 54% 29.97 in 10.0 mi Calm Calm - N/A   Clear
11:35 PM 26.6 °F 20.0 °F 8.6 °F 47% 29.97 in 10.0 mi WSW 5.8 mph - N/A   Clear
11:55 PM 24.8 °F 17.9 °F 8.6 °F 50% 29.97 in 10.0 mi West 5.8 mph - N/A   Clear